Terminal Aerodrome Forecast
Issued by NWS North Platte, NE

Home | Current Version | Previous Version | Text Only | Print | Product List | Glossary On
Versions: 1 2 3 4 5 6 7 8 9 10 11 12 13 14 15 16 17 18 19 20 21 22 23 24 25 26 27 28 29 30 31 32 33 34 35
000
FTUS43 KLBF 191700
TAFLBF
TAF
KLBF 191722Z 1918/2018 26009KT P6SM SKC
     FM200600 VRB05KT P6SM SCT150
      TEMPO 2010/2014 5SM BR=

USA.gov is the U.S. government's official web portal to all federal, state and local government web resources and services.